Regional Weather Roundup
Issued by NWS

Home | Current Version | Previous Version | Text Only | Print | Product List | Glossary Off
Versions: 1 2 3 4 5 6 7 8 9 10 11 12 13 14 15 16 17 18 19 20 21 22 23 24 25 26 27 28 29 30 31 32 33 34 35 36 37 38 39 40 41 42 43 44 45 46 47 48 49 50

000
ASUS43 KFSD 291910
RWRSD

WEATHER ROUNDUP FOR SOUTH DAKOTA
NATIONAL WEATHER SERVICE SIOUX FALLS SD
200 PM CDT WED JUL 29 2015

NOTE: "FAIR" INDICATES FEW OR NO CLOUDS BELOW 12,000 FEET WITH NO
SIGNIFICANT WEATHER AND/OR OBSTRUCTIONS TO VISIBILITY.


SDZ001>005-009-010-012>017-292000-
NORTHWEST AND NORTH CENTRAL SOUTH DAKOTA

CITY           SKY/WX    TMP DP  RH WIND       PRES   REMARKS
BUFFALO          N/A     79  36  21 W25G32    30.12F
FAITH            N/A     82  33  17 W28G33    30.16F
MOBRIDGE       MOSUNNY   83  49  30 NW16G28   30.07S
$$

SDZ012>016-024>037-041>051-057-063-072>074-292000-
SOUTHWEST AND SOUTH CENTRAL SOUTH DAKOTA

CITY           SKY/WX    TMP DP  RH WIND       PRES   REMARKS
RAPID CTY ARPT SUNNY     79  43  27 SE5       30.23F
PIERRE         SUNNY     86  41  20 NW24G31   30.11F
CUSTER         SUNNY     69  35  28 W8G18     30.36S
ELLSWORTH AFB  SUNNY     79  40  24 VRB6      30.22F
PHILIP         SUNNY     84  42  22 W17G25    30.17F
PINE RIDGE     SUNNY     80  43  26 SW8       30.26F
SPEARFISH      FAIR      75  39  27 NW7G17    30.27F
WINNER         FAIR      87  42  20 W20G28    30.17F
$$

SDZ004>011-016>023-039-040-292000-
NORTHEAST SOUTH DAKOTA

CITY           SKY/WX    TMP DP  RH WIND       PRES   REMARKS
ABERDEEN       SUNNY     83  49  30 W23G37    30.03F
WATERTOWN      SUNNY     79  52  38 W18G31    30.05S
BROOKINGS      SUNNY     79  54  41 W20G28    30.09F
SISSETON         N/A     79  52  38 NW28G40   29.95S
$$

SDZ017-020-022-023-036>040-048>070-292000-
SOUTHEAST SOUTH DAKOTA

CITY           SKY/WX    TMP DP  RH WIND       PRES   REMARKS
SIOUX FALLS    MOSUNNY   80  53  39 W13G25    30.11F
HURON          SUNNY     84  49  29 NW24G33   30.07F
CHAMBERLAIN    SUNNY     83  47  27 W21G26    30.14S
MITCHELL       SUNNY     85  49  28 W18G28    30.11F
YANKTON        SUNNY     82  50  32 W15G21    30.13F
$$

ABBREVIATIONS USED IN REMARKS
   TC - TEMPERATURE IN CELSIUS
  WCI - WIND CHILL INDEX
   HX - HEAT INDEX
  VSB - VISIBILITY




USA.gov is the U.S. government's official web portal to all federal, state and local government web resources and services.